This is the latest recevied weather packets stored in our database for station/object AI5YA-13. If no packets are shown the sender has not sent any weather packets the latest 1 day(s).
| Time | Temp. | Humidity | Pressure | Rain* | Wind** | Luminosity | Snow |
|---|---|---|---|---|---|---|---|
| 1778027471 | 25.56° C | 31% | 1009 hPa | 0 mm | 0 m/s | 128 W/m² | - |
| 1778027167 | 26.11° C | 32% | 1009 hPa | 0 mm | 0 m/s | 147 W/m² | - |
| 1778026863 | 25.56° C | 32% | 1009 hPa | 0 mm | 0 m/s | 170 W/m² | - |
| 1778026559 | 25° C | 33% | 1009 hPa | 0 mm | 0 m/s | 131 W/m² | - |
| 1778026256 | 25° C | 33% | 1009.3 hPa | 0 mm | 0 m/s | 122 W/m² | - |
| 1778025954 | 25° C | 33% | 1009.3 hPa | 0 mm | 0 m/s | 99 W/m² | - |
| 1778025651 | 24.44° C | 33% | 1009.6 hPa | 0 mm | 0 m/s | 84 W/m² | - |
| 1778025349 | 24.44° C | 33% | 1009.6 hPa | 0 mm | 0 m/s | 78 W/m² | - |
| 1778025046 | 25° C | 32% | 1009.5 hPa | 0 mm | 0 m/s | 70 W/m² | - |
| 1778024743 | 25° C | 32% | 1009.2 hPa | 0 mm | 0 m/s | 71 W/m² | - |
| 1778024439 | 25° C | 32% | 1009.3 hPa | 0 mm | 0 m/s | 74 W/m² | - |
| 1778024137 | 25° C | 31% | 1009.3 hPa | 0 mm | 0 m/s | 78 W/m² | - |
| 1778023834 | 25° C | 31% | 1009.2 hPa | 0 mm | 0 m/s | 74 W/m² | - |
| 1778023532 | 25° C | 31% | 1009.5 hPa | 0 mm | 0 m/s | 63 W/m² | - |
| 1778023229 | 25° C | 31% | 1009.8 hPa | 0 mm | 0 m/s | 59 W/m² | - |
| 1778022926 | 25° C | 30% | 1009.3 hPa | 0 mm | 0 m/s | 68 W/m² | - |
| 1778022625 | 25° C | 30% | 1009.1 hPa | 0 mm | 0 m/s | 84 W/m² | - |
| 1778022322 | 25.56° C | 30% | 1008.9 hPa | 0 mm | 0 m/s | 89 W/m² | - |
| 1778022018 | 25.56° C | 30% | 1009.1 hPa | 0 mm | 0 m/s | 95 W/m² | - |
| 1778021715 | 25.56° C | 29% | 1009.1 hPa | 0 mm | 0 m/s | 105 W/m² | - |
| 1778021411 | 25.56° C | 30% | 1009.1 hPa | 0 mm | 0 m/s | 96 W/m² | - |
| 1778021108 | 25.56° C | 30% | 1009.2 hPa | 0 mm | 0 m/s | 89 W/m² | - |
| 1778020805 | 25.56° C | 30% | 1009.1 hPa | 0 mm | 0 m/s | 89 W/m² | - |
| 1778020502 | 25.56° C | 31% | 1009.1 hPa | 0 mm | 0 m/s | 74 W/m² | - |
| 1778020198 | 25.56° C | 31% | 1009.3 hPa | 0 mm | 0 m/s | 82 W/m² | - |
* Rain latest hour (hover to see other rain measurements)
** Current wind speed in m/s (hover to see current wind gust speed)